Location: Cisewo
(53.3833°N, 14.9000°E)
Time: 12:17:30
(UTC+00:00)

CZ-2C R/B - Pass Details

Date: 18 April 2021
Orbit: 639 x 705 km, 98.3° (Epoch: 14 May)

Event Time Altitude Azimuth Distance (km) Brightness Sun altitude
Rises 19:39:53 0° 18° (NNE) 2,979 7.4 -12.8°
Reaches altitude 10° 19:42:10 10° 23° (NNE) 2,057 6.5 -13.1°
Maximum altitude 19:46:33 54° 101° (E) 784 3.7 -13.6°
Enters shadow 19:50:38 11° 178° (S) 1,933 5.7 -14.0°
